TimeMDT,TemperatureF,Dew PointF,Humidity,Sea Level PressureIn,VisibilityMPH,Wind Direction,Wind SpeedMPH,Gust SpeedMPH,PrecipitationIn,Events,Conditions,WindDirDegrees,DateUTC
12:53 AM,52.0,37.9,59,29.72,7.0,West,12.7,-,N/A,,Clear,280,2012-10-08 06:53:00
1:53 AM,51.1,39.0,63,29.74,8.0,West,9.2,-,N/A,,Clear,270,2012-10-08 07:53:00
2:53 AM,48.9,39.0,69,29.75,8.0,West,6.9,-,N/A,,Clear,270,2012-10-08 08:53:00
3:53 AM,50.0,39.9,68,29.75,10.0,West,9.2,-,N/A,,Clear,280,2012-10-08 09:53:00
4:53 AM,50.0,39.9,68,29.77,10.0,NW,10.4,-,N/A,,Overcast,310,2012-10-08 10:53:00
5:53 AM,46.9,39.9,77,29.79,10.0,NW,6.9,-,N/A,,Scattered Clouds,310,2012-10-08 11:53:00
6:53 AM,44.1,39.0,82,29.82,10.0,WNW,8.1,-,N/A,,Clear,300,2012-10-08 12:53:00
7:53 AM,46.9,41.0,80,29.82,10.0,NW,9.2,-,N/A,,Clear,310,2012-10-08 13:53:00
8:53 AM,48.0,39.0,71,29.85,10.0,NW,17.3,-,N/A,,Clear,320,2012-10-08 14:53:00
9:53 AM,51.1,36.0,56,29.84,10.0,NNW,20.7,-,N/A,,Clear,330,2012-10-08 15:53:00
10:53 AM,53.1,37.0,55,29.85,10.0,NW,19.6,26.5,N/A,,Scattered Clouds,310,2012-10-08 16:53:00
11:53 AM,53.1,33.1,47,29.83,10.0,NW,24.2,31.1,N/A,,Mostly Cloudy,310,2012-10-08 17:53:00
12:53 PM,54.0,30.9,41,29.83,10.0,NW,24.2,32.2,N/A,,Scattered Clouds,310,2012-10-08 18:53:00
1:53 PM,52.0,28.9,41,29.84,10.0,NW,20.7,32.2,N/A,,Partly Cloudy,310,2012-10-08 19:53:00
2:53 PM,52.0,27.0,38,29.84,10.0,WNW,23.0,32.2,N/A,,Partly Cloudy,290,2012-10-08 20:53:00
3:53 PM,50.0,27.0,41,29.86,10.0,NW,20.7,28.8,N/A,,Mostly Cloudy,320,2012-10-08 21:53:00
4:53 PM,48.0,26.1,42,29.88,10.0,NW,15.0,23.0,N/A,,Scattered Clouds,310,2012-10-08 22:53:00
5:53 PM,46.0,25.0,44,29.90,10.0,NW,15.0,26.5,N/A,,Mostly Cloudy,310,2012-10-08 23:53:00
6:53 PM,45.0,27.0,49,29.94,10.0,NNW,23.0,28.8,N/A,,Overcast,330,2012-10-09 00:53:00
7:53 PM,43.0,26.1,51,29.96,10.0,NW,16.1,-,N/A,,Partly Cloudy,320,2012-10-09 01:53:00
8:53 PM,42.1,24.1,49,29.97,10.0,NW,17.3,-,N/A,,Clear,310,2012-10-09 02:53:00
9:53 PM,39.9,25.0,55,29.99,10.0,West,8.1,-,N/A,,Clear,280,2012-10-09 03:53:00
10:53 PM,39.9,28.9,65,29.99,10.0,NW,17.3,-,N/A,,Overcast,310,2012-10-09 04:53:00
11:53 PM,39.0,28.9,67,30.00,10.0,WNW,10.4,-,N/A,,Mostly Cloudy,290,2012-10-09 05:53:00